"2010-05-30 02:59:30",156339,10.37,40.41,0.53,0.037,12.93,105.149,12.45,13.39,42.85,0,110.1,13.51,13.25,2.4
"2010-05-30 03:00:00",156340,10.68,40.95,3.343,0.786,13.45,105.149,12.45,13.41,42.67,0,110.1,13.48,13.25,3.0
"2010-05-30 03:00:30",156341,11.94,47.74,6.579,1.297,16.36,105.149,12.45,13.63,42.83,0,110.1,13.48,13.25,9.7
"2010-05-30 03:01:00",156342,13.05,52.31,4.049,0.682,17.74,105.149,12.45,13.69,42.96,0,110.1,13.48,13.25,14.3
"2010-05-30 03:01:30",156343,12.91,51.1,4.848,0.911,16.92,105.149,12.45,13.61,42.76,0,110.1,13.48,13.25,13.1
"2010-05-30 03:02:00",156344,12.08,46.97,6.472,1.254,14.95,105.1482,12.45,13.52,42.51,0,110.1,13.48,13.25,9.0
"2010-05-30 03:02:30",156345,11.04,40.88,0,0.093,12.36,105.144,12.44,13.37,42.28,0,110.1,13.52,13.24,2.9
"2010-05-30 03:03:00",156346,11.27,40.91,0.02,0.092,12.71,105.1253,12.39,13.37,42.29,0,110.1,13.52,13.19,2.9
"2010-05-30 03:03:30",156347,12.49,46.22,6.458,1.378,15.42,105.1155,12.37,13.52,42.51,0,110.1,13.49,13.16,8.2
"2010-05-30 03:04:00",156348,12.66,46.29,6.646,1.288,15.35,105.1152,12.37,13.55,42.49,0,110.1,13.49,13.16,8.3
"2010-05-30 03:04:30",156349,13.88,53.76,2.684,0.859,17.79,105.1152,12.37,13.66,42.88,0,110.1,13.49,13.16,15.8
"2010-05-30 03:05:00",156350,13.63,53.06,3.686,0.733,17.18,105.1147,12.37,13.66,42.62,0,110.1,13.49,13.16,15.1
"2010-05-30 03:05:30",156351,12.05,46.75,6.541,1.414,14.53,105.0958,12.32,13.46,42.42,0,110.1,13.49,13.11,8.8
"2010-05-30 03:06:00",156352,11.01,41.96,0.034,0.115,12.43,105.0822,12.28,13.29,42.35,0,110.1,13.52,13.08,4.0
"2010-05-30 03:06:30",156353,10.92,41.96,0.037,0.184,12.71,105.0822,12.28,13.28,42.44,0,110.1,13.52,13.08,4.0
"2010-05-30 03:07:00",156354,11.46,48.37,6.464,1.447,15.16,105.0822,12.28,13.3,42.63,0,110.1,13.49,13.08,10.4
"2010-05-30 03:07:30",156355,11.52,49.06,6.673,1.431,15.69,105.0819,12.28,13.5,42.88,0,110.1,13.49,13.08,11.1
"2010-05-30 03:08:00",156356,12.61,54.54,3.669,0.921,17.58,105.0825,12.28,13.57,42.95,0,110.1,13.49,13.08,16.5
"2010-05-30 03:08:30",156357,12.64,53.83,3.637,0.719,17.19,105.0825,12.28,13.53,43,0,110.1,13.49,13.08,15.8
"2010-05-30 03:09:00",156358,10.41,41.02,0.517,0.127,12.38,105.0828,12.28,13.33,42.97,0,110.1,13.49,13.08,3.0
"2010-05-30 03:09:30",156359,10.38,40.85,0.207,0.137,12.32,105.0785,12.27,13.23,42.84,0,110.1,13.52,13.07,2.8
"2010-05-30 03:10:00",156360,10.29,40.07,1.289,0.324,12.39,105.0631,12.23,13.21,44.05,0,110.1,13.52,13.03,2.1
"2010-05-30 03:10:30",156361,11.19,46.69,6.638,1.577,15.4,105.0569,12.22,13.38,45.94,0,110.1,13.49,13.01,8.7
"2010-05-30 03:11:00",156362,11.67,48.33,5.94,1.382,16.41,105.0493,12.2,13.43,45.89,0,110.1,13.49,12.99,10.3
"2010-05-30 03:11:30",156363,11.98,49.53,4.111,0.71,16.88,105.034,12.16,13.45,47.08,0,110.1,13.49,12.95,11.5
"2010-05-30 03:12:00",156364,11.6,46.4,6.406,1.223,15.68,105.025,12.14,13.36,47.08,0,110.1,13.49,12.93,8.4
"2010-05-30 03:12:30",156365,9.8,38.34,1.271,0.242,12,105.0102,12.1,13.11,46.62,0,110.1,13.52,12.89,0.3
"2010-05-30 03:13:00",156366,9.41,38.66,1.396,0.312,11.87,104.9934,12.06,13.04,47.22,0,110.1,13.52,12.85,0.7
"2010-05-30 03:13:30",156367,9.79,40.45,4.742,0.719,12.98,104.9785,12.02,13.13,47.74,0,110.1,13.49,12.81,2.5
"2010-05-30 03:14:00",156368,11.76,50.11,6.079,1.177,16.12,104.9492,11.94,13.21,47.52,0,110.1,13.49,12.74,12.1
"2010-05-30 03:14:30",156369,11.84,50.75,6.326,1.206,15.78,104.9393,11.92,13.14,47.51,0,110.1,13.49,12.71,12.8
"2010-05-30 03:15:00",156370,11.89,54.3,5.111,0.97,16.11,104.9136,11.85,13.11,47.54,0,110.1,13.49,12.64,16.3
"2010-05-30 03:15:30",156371,11.66,53.62,6.381,1.083,15.56,104.9136,11.85,13.07,47.41,0,110.1,13.49,12.64,15.6
"2010-05-30 03:16:00",156372,10.17,47.74,5.154,1.081,12.84,104.8876,11.78,12.79,47.68,0,110.1,13.49,12.58,9.7
"2010-05-30 03:16:30",156373,9.86,45.24,1.577,0.379,12.11,104.8797,11.76,12.75,47.95,0,110.1,13.52,12.56,7.2
"2010-05-30 03:17:00",156374,11.56,53.83,7.17,1.315,15.43,104.8791,11.76,12.95,48.15,0,110.1,13.49,12.56,15.8
"2010-05-30 03:17:30",156375,11.87,56.23,6.641,1.288,16.17,104.8611,11.72,12.97,47.54,0,110.1,13.49,12.51,18.2
"2010-05-30 03:18:00",156376,11.28,56.08,6.833,1.366,15.56,104.8458,11.68,12.9,48.33,0,110.1,13.49,12.47,18.1
"2010-05-30 03:18:30",156377,12.1,56.99,6.326,1.199,16.05,104.8458,11.68,12.91,46.23,0,110.1,13.49,12.47,19.0
"2010-05-30 03:19:00",156378,10.58,55.22,6.235,1.327,13.96,104.8458,11.68,12.74,47.84,0,110.1,13.49,12.47,17.2
"2010-05-30 03:19:30",156379,10.06,46.52,1.272,0.137,12.22,104.8458,11.68,12.63,46.4,0,110.1,13.52,12.47,8.5
"2010-05-30 03:20:00",156380,10.53,50.37,5.215,0.948,13.44,104.8458,11.68,12.76,46.22,0,110.1,13.49,12.47,12.4
"2010-05-30 03:20:30",156381,11.69,56.76,6.706,1.399,15.48,104.8458,11.68,12.88,47.11,0,110.1,13.49,12.47,18.8
"2010-05-30 03:21:00",156382,9.59,54.85,6.526,1.595,14.06,104.8373,11.66,12.73,50.8,0,110.1,13.5,12.45,16.8
"2010-05-30 03:21:30",156383,11,56.69,6.744,1.192,15.18,104.8125,11.59,12.85,49.67,0,110.1,13.5,12.39,18.7
"2010-05-30 03:22:00",156384,11.75,58.76,5.76,1.224,15.64,104.8119,11.59,12.82,48.23,0,110.1,13.5,12.38,20.8
"2010-05-30 03:22:30",156385,9.69,48.83,2.951,0.578,11.87,104.8116,11.59,12.55,48.67,0,110.1,13.5,12.38,10.8
"2010-05-30 03:23:00",156386,10.74,53.9,6.701,1.361,13.75,104.793,11.54,12.58,48.79,0,110.1,13.49,12.34,15.9
"2010-05-30 03:23:30",156387,10.87,57.8,6.225,1.264,15.02,104.7786,11.51,12.76,49.65,0,110.1,13.5,12.30,19.8
"2010-05-30 03:24:00",156388,9.96,58.15,6.058,1.139,14.85,104.778,11.5,12.71,50.56,0,110.1,13.5,12.30,20.2
"2010-05-30 03:24:30",156389,11.06,58.85,5.776,1.362,15.68,104.7619,11.46,12.68,49.77,0,110.1,13.5,12.26,20.8
"2010-05-30 03:25:00",156390,11.58,57.06,5.733,1.211,16.21,104.7574,11.45,12.65,46.84,0,110.1,13.5,12.24,19.1
"2010-05-30 03:25:30",156391,10.26,51.73,6.103,1.214,13.03,104.7659,11.47,12.55,48.27,0,110.1,13.5,12.27,13.7
"2010-05-30 03:26:00",156392,9.82,53.54,5.883,1.481,13.22,104.7489,11.43,12.46,50,0,110.1,13.5,12.22,15.5
"2010-05-30 03:26:30",156393,10.16,54.18,5.87,1.711,13.62,104.7441,11.42,12.54,50.19,0,110.1,13.5,12.21,16.2
"2010-05-30 03:27:00",156394,10.79,54.34,7.091,1.319,14.47,104.7441,11.42,12.48,48.89,0,110.1,13.5,12.21,16.3
"2010-05-30 03:27:30",156395,9.22,49.83,5.195,0.882,13.49,104.7258,11.37,12.56,51.75,0,110.1,13.5,12.16,11.8
"2010-05-30 03:28:00",156396,11.4,58.99,5.196,1.07,16.01,104.7103,11.33,12.61,49.71,0,110.1,13.5,12.12,21.0
"2010-05-30 03:28:30",156397,10.31,55.27,8.04,1.238,14.52,104.7103,11.33,12.54,50.29,0,110.1,13.5,12.12,17.3
"2010-05-30 03:29:00",156398,10.24,49.67,6.279,1.314,13.99,104.7103,11.33,12.36,49.6,0,110.1,13.5,12.12,11.7
"2010-05-30 03:29:30",156399,9.81,49.92,6.567,1.074,14.53,104.7153,11.34,12.43,46.91,0,110.1,13.49,12.14,11.9
"2010-05-30 03:30:00",156400,9.35,44.44,0.559,0.191,12.52,104.7453,11.42,12.35,46.54,0,110.1,13.52,12.21,6.4
"2010-05-30 03:30:30",156401,10.43,51.1,6.927,1.296,14.99,104.7744,11.49,12.45,46.43,0,110.1,13.49,12.29,13.1
"2010-05-30 03:31:00",156402,10.88,50.96,7.258,1.502,15.08,104.7865,11.53,12.61,46.44,0,110.1,13.49,12.32,13.0
"2010-05-30 03:31:30",156403,11.06,55.48,6.374,1.339,15.54,104.8099,11.59,12.7,48.52,0,110.1,13.49,12.38,17.5
"2010-05-30 03:32:00",156404,11.43,56.58,4.985,1.022,16.42,104.7862,11.53,12.71,48.64,0,110.1,13.49,12.32,18.6
"2010-05-30 03:32:30",156405,10.83,53.52,6.639,1.456,15.22,104.7882,11.53,12.54,46.54,0,110.1,13.49,12.32,15.5
"2010-05-30 03:33:00",156406,9.6,49.47,5.252,0.894,12.93,104.8114,11.59,12.58,46.4,0,110.1,13.49,12.38,11.5
"2010-05-30 03:33:30",156407,8.91,46.55,1.757,0.431,11.86,104.8119,11.59,12.46,47.26,0,110.1,13.52,12.38,8.5
"2010-05-30 03:34:00",156408,10.05,52.05,5.963,1.137,14.83,104.8119,11.59,12.6,47.04,0,110.1,13.49,12.38,14.0
"2010-05-30 03:34:30",156409,10.3,52.72,7.434,1.459,15.04,104.8119,11.59,12.61,46.37,0,110.1,13.49,12.38,14.7
"2010-05-30 03:35:00",156410,10.87,55.23,6.315,1.1,16.24,104.8119,11.59,12.71,46.57,0,110.1,13.49,12.38,17.2
"2010-05-30 03:35:30",156411,8.84,55.18,5.956,1.518,15.66,104.7981,11.56,12.78,52.95,0,110.1,13.49,12.35,17.2
"2010-05-30 03:36:00",156412,8.87,49.95,8.15,1.113,12.9,104.7614,11.46,12.48,51.24,0,110.1,13.5,12.25,12.0
"2010-05-30 03:36:30",156413,8.61,45.23,1.297,0.235,11.92,104.7441,11.42,12.38,48,0,110.1,13.53,12.21,7.2
"2010-05-30 03:37:00",156414,8.22,47.81,4.374,0.721,12.88,104.7441,11.42,12.46,50.37,0,110.1,13.5,12.21,9.8
"2010-05-30 03:37:30",156415,6.562,44.95,6.466,1.907,12.6,104.7173,11.35,12.37,54.42,0,110.1,13.5,12.14,7.0
"2010-05-30 03:38:00",156416,7.839,51.72,7.803,1.725,13.99,104.6704,11.23,12.48,55.87,0,110.1,13.5,12.02,13.7
"2010-05-30 03:38:30",156417,8.81,51.84,5.828,1.215,16.16,104.6301,11.13,12.5,56.65,0,110.1,13.5,11.92,13.8
"2010-05-30 03:39:00",156418,10.07,56.2,5.357,1.052,15.19,104.6086,11.07,12.33,53.87,0,110.1,13.5,11.86,18.2
"2010-05-30 03:39:30",156419,7.325,47.05,6.705,1.352,12.5,104.6069,11.07,12.15,53.69,0,110.1,13.5,11.86,9.0
"2010-05-30 03:40:00",156420,6.295,44.12,3.885,0.97,10.99,104.5753,10.99,12.02,56.01,0,110.1,13.53,11.78,6.1
"2010-05-30 03:40:30",156421,6.386,49.58,7.341,1.566,12.34,104.5533,10.93,12.1,56.25,0,110.1,13.5,11.72,11.6
"2010-05-30 03:41:00",156422,7.709,50.76,7.929,1.167,13.19,104.5417,10.9,11.95,55.4,0,110.1,13.5,11.69,12.8
"2010-05-30 03:41:30",156423,7.921,55.09,6.87,1.157,14.64,104.5417,10.9,12.15,54.5,0,110.1,13.5,11.69,17.1
"2010-05-30 03:42:00",156424,9.11,59.81,6.381,0.722,16.18,104.5441,10.91,12.17,55.2,0,110.1,13.5,11.70,21.8
"2010-05-30 03:42:30",156425,7.349,53.72,9.25,1.417,14.52,104.5244,10.86,12.07,57.81,0,110.1,13.5,11.65,15.7
"2010-05-30 03:43:00",156426,6.348,43.93,5.942,0.998,11.03,104.514,10.83,11.81,55.59,0,110.1,13.54,11.62,5.9
"2010-05-30 03:43:30",156427,6.962,47.85,2.56,0.54,11.01,104.5149,10.83,11.79,54.94,0,110.1,13.54,11.62,9.8
"2010-05-30 03:44:00",156428,6.982,50.72,3.154,0.914,12.35,104.517,10.84,11.92,53.89,0,110.1,13.54,11.63,12.7
"2010-05-30 03:44:30",156429,7.689,53.27,6.728,1.461,13.98,104.5354,10.88,11.85,50.89,0,110.1,13.5,11.67,15.3
"2010-05-30 03:45:00",156430,7.497,55.98,9.09,1.55,14.47,104.5464,10.91,12.08,55.01,0,110.1,13.5,11.70,18.0
"2010-05-30 03:45:30",156431,8.83,59.94,4.76,0.978,15.83,104.547,10.91,12.1,53.66,0,110.1,13.5,11.70,21.9
"2010-05-30 03:46:00",156432,9.14,60.86,6.09,0.888,16.02,104.5479,10.92,12.13,54.72,0,110.1,13.5,11.71,22.9
"2010-05-30 03:46:30",156433,5.697,49.51,4.626,0.855,11.21,104.5491,10.92,11.9,54.82,0,110.1,13.5,11.71,11.5
"2010-05-30 03:47:00",156434,5.45,56.56,6.069,0.448,11,104.5497,10.92,11.83,56.14,0,110.1,13.53,11.71,18.6
"2010-05-30 03:47:30",156435,6.19,53.22,4.072,0.6,11.44,104.5515,10.92,11.85,54.36,0,110.1,13.53,11.71,15.2
"2010-05-30 03:48:00",156436,7.724,57.86,9.34,1.175,14.1,104.5526,10.93,11.92,54.74,0,110.1,13.5,11.72,19.9
"2010-05-30 03:48:30",156437,6.905,51.88,7.332,1.227,12.99,104.5553,10.93,12.07,54.14,0,110.1,13.49,11.72,13.9
"2010-05-30 03:49:00",156438,8.5,64.86,6.909,1.08,15.9,104.555,10.93,12.13,54.77,0,110.1,13.49,11.72,26.9
"2010-05-30 03:49:30",156439,8.09,65,7.583,1.506,15.45,104.5565,10.94,12.15,55.43,0,110.1,13.49,11.73,27.0
"2010-05-30 03:50:00",156440,7.787,55.52,5.639,1.649,14.06,104.557,10.94,11.92,50.72,0,110.1,13.49,11.73,17.5
"2010-05-30 03:50:30",156441,6.931,48.96,2.194,0.557,11.43,104.5902,11.02,11.87,49.75,0,110.1,13.53,11.81,11.0
"2010-05-30 03:51:00",156442,6.292,52.36,5.406,0.908,12.23,104.6069,11.07,11.9,55.1,0,110.1,13.49,11.86,14.4
"2010-05-30 03:51:30",156443,5.563,53.3,6.32,1.211,12.44,104.5821,11,12.06,57.02,0,110,13.5,11.79,15.3
"2010-05-30 03:52:00",156444,7.386,57.92,9.03,1.575,14.73,104.5603,10.95,11.97,56.25,0,110.1,13.5,11.74,19.9
"2010-05-30 03:52:30",156445,8.64,59.57,7.315,1.281,15.49,104.5571,10.94,12.1,54.01,0,110.1,13.5,11.73,21.6
"2010-05-30 03:53:00",156446,9.14,60.64,5.598,1.182,15.78,104.567,10.96,12.12,51.11,0,110.1,13.5,11.75,22.6
"2010-05-30 03:53:30",156447,6.955,59.5,5.886,1.696,12.56,104.5797,11,11.89,52.54,0,110.1,13.5,11.79,21.5
"2010-05-30 03:54:00",156448,6.183,57.3,3.203,0.401,11.13,104.5786,10.99,11.91,53.57,0,110.1,13.53,11.78,19.3
"2010-05-30 03:54:30",156449,6.295,58.61,5.911,1.021,12.23,104.5837,11.01,11.91,51.77,0,110.1,13.5,11.80,20.6
"2010-05-30 03:55:00",156450,5.703,55.66,2.738,0.511,12.17,104.6087,11.07,12.07,51.31,0,110.1,13.5,11.86,17.7
"2010-05-30 03:55:30",156451,7.162,61.12,7.355,1.515,14.04,104.6098,11.07,12.02,51.9,0,110.1,13.5,11.86,23.1
"2010-05-30 03:56:00",156452,5.458,63.53,6.85,1.283,14.77,104.6122,11.08,12.18,54.31,0,110.1,13.5,11.87,25.5
"2010-05-30 03:56:30",156453,5.821,60.39,10.33,0.834,15.93,104.595,11.04,12.24,55.2,0,110.1,13.5,11.83,22.4
"2010-05-30 03:57:00",156454,3.16,38.6,12.62,1.435,12.14,104.5648,10.96,12.02,57.28,0,110.1,13.5,11.75,0.6
"2010-05-30 03:57:30",156455,1.501,14.61,19.77,0.513,10.33,104.5348,10.88,11.86,57.68,0,110.1,13.53,11.67,336.6
"2010-05-30 03:58:00",156456,1.058,357.5,15.54,0.326,10.17,104.5156,10.83,11.81,58.35,0,110.1,13.53,11.62,319.5
"2010-05-30 03:58:30",156457,1.155,12.6,13.17,0.448,10.31,104.4893,10.77,11.79,58.37,0,110.1,13.53,11.56,334.6
"2010-05-30 03:59:00",156458,0.935,10.44,13.37,0.319,10.61,104.486,10.76,11.75,58.58,0,110.1,13.53,11.55,332.4
"2010-05-30 03:59:30",156459,0.99,35.12,16,0.401,10.88,104.4665,10.71,11.71,58.49,0,110.1,13.53,11.50,357.1
"2010-05-30 04:00:00",156460,3.21,68.58,6.483,1.466,13.56,104.4554,10.68,11.85,57.47,0,110.1,13.5,11.47,30.6
"2010-05-30 04:00:30",156461,1.438,40.63,12.29,0.77,11.58,104.4766,10.73,11.69,56.8,0,110.1,13.5,11.52,2.6
"2010-05-30 04:01:00",156462,1.563,16.21,14.58,1.236,13.44,104.4896,10.77,11.79,56.92,0,110.1,13.49,11.56,338.2
"2010-05-30 04:01:30",156463,0.282,347,23.94,0.277,10.98,104.4911,10.77,11.69,57.28,0,110.1,13.53,11.56,309.0
"2010-05-30 04:02:00",156464,0.575,306,20.77,0.211,10.45,104.4914,10.77,11.65,57.85,0,110.1,13.52,11.56,268.0
"2010-05-30 04:02:30",156465,2.218,283.2,19.96,1.472,13.16,104.4827,10.75,11.83,58.64,0,110.1,13.48,11.54,245.2
"2010-05-30 04:03:00",156466,2.277,283.2,9.88,1.347,12.93,104.4615,10.69,11.81,58.65,0,110.1,13.48,11.48,245.2
"2010-05-30 04:03:30",156467,0.552,250.5,20.36,0.147,10.13,104.4601,10.69,11.63,58.82,0,110.1,13.51,11.48,212.5
"2010-05-30 04:04:00",156468,0.664,245,25.05,0.138,9.93,104.4613,10.69,11.61,59.09,0,110.1,13.51,11.48,207.0
"2010-05-30 04:04:30",156469,0.607,265.3,20.14,0.302,9.98,104.4601,10.69,11.61,59.1,0,110.1,13.51,11.48,227.3
"2010-05-30 04:05:00",156470,0.58,307.4,32.37,0.225,10.37,104.461,10.69,11.6,58.38,0,110.1,13.51,11.48,269.4
"2010-05-30 04:05:30",156471,1.272,12.42,36.59,0.46,10.74,104.4625,10.7,11.58,56.96,0,110.1,13.48,11.49,334.4
"2010-05-30 04:06:00",156472,1.283,10.47,24.27,0.75,11.95,104.4675,10.71,11.74,56.51,0,110.1,13.48,11.50,332.5
"2010-05-30 04:06:30",156473,3.12,22.4,31.85,1.256,15.08,104.4935,10.78,11.7,56.58,0,110.1,13.48,11.57,344.4
"2010-05-30 04:07:00",156474,1.471,19.08,11.77,0.997,12.5,104.4993,10.79,11.76,56.6,0,110.1,13.48,11.58,341.1
"2010-05-30 04:07:30",156475,1.978,46.06,5.595,0.558,10.98,104.5011,10.8,11.62,55.47,0,110.1,13.49,11.59,8.1
"2010-05-30 04:08:00",156476,3.025,59.42,6.004,0.988,12.34,104.5123,10.82,11.82,54.58,0,110.1,13.49,11.61,21.4
"2010-05-30 04:08:30",156477,3.622,34.29,17.78,1.361,14.44,104.5264,10.86,11.91,55.53,0,110.1,13.49,11.65,356.3
"2010-05-30 04:09:00",156478,1.342,32.07,10.12,0.336,11.18,104.531,10.87,11.82,55.65,0,110.1,13.53,11.66,354.1
"2010-05-30 04:09:30",156479,1.776,42.99,8.59,0.196,10.49,104.5312,10.87,11.68,55.15,0,110.1,13.52,11.66,5.0
"2010-05-30 04:10:00",156480,1.926,36.08,4.892,0.29,10.51,104.5344,10.88,11.69,55.25,0,110.1,13.53,11.67,358.1
"2010-05-30 04:10:30",156481,1.386,38.5,12.55,0.425,10.76,104.5278,10.86,11.69,55.74,0,110.1,13.52,11.65,0.5
"2010-05-30 04:11:00",156482,1.482,5.389,17.73,1.285,12.75,104.5256,10.86,11.86,56.11,0,110.1,13.49,11.65,327.4
"2010-05-30 04:11:30",156483,1.868,11.52,12.59,1.417,13.6,104.524,10.85,11.82,55.93,0,110.1,13.5,11.64,333.5
"2010-05-30 04:12:00",156484,2.429,30.06,10.11,1.071,14.27,104.5127,10.83,11.88,56.49,0,110.1,13.49,11.62,352.1
"2010-05-30 04:12:30",156485,1.918,32.36,11.92,0.714,11.01,104.5034,10.8,11.69,55.82,0,110.1,13.49,11.59,354.4
"2010-05-30 04:13:00",156486,1.366,59.19,9.09,0.395,10.37,104.504,10.8,11.68,55.93,0,110.1,13.53,11.59,21.2
"2010-05-30 04:13:30",156487,2.02,54.27,6.627,1.332,11.52,104.5023,10.8,11.73,56.73,0,110.1,13.49,11.59,16.3
"2010-05-30 04:14:00",156488,3.336,90.1,13.37,1.188,14.21,104.5038,10.8,11.83,55.65,0,110.1,13.49,11.59,52.1
"2010-05-30 04:14:30",156489,2.17,56.47,13.51,1.332,11.85,104.5167,10.84,11.7,54.74,0,110.1,13.49,11.63,18.5
"2010-05-30 04:15:00",156490,2.883,38.94,8.73,1.242,12.95,104.5374,10.89,11.85,54.52,0,110.1,13.5,11.68,0.9
"2010-05-30 04:15:30",156491,3.453,49.21,6.706,0.195,10.88,104.5388,10.89,11.71,53.06,0,110.1,13.52,11.68,11.2
"2010-05-30 04:16:00",156492,5.093,55.62,7.167,1.535,12.8,104.542,10.9,11.77,53.03,0,110.1,13.48,11.69,17.6
"2010-05-30 04:16:30",156493,5.035,54.71,5.704,1.366,13.14,104.5608,10.95,11.88,53.63,0,110.1,13.48,11.74,16.7
"2010-05-30 04:17:00",156494,4.737,61.63,8.34,1.56,13.42,104.5702,10.97,12,53.65,0,110.1,13.48,11.76,23.6
"2010-05-30 04:17:30",156495,4.197,58.67,6.661,0.894,12.37,104.5715,10.98,11.86,54.08,0,110.1,13.49,11.77,20.7
"2010-05-30 04:18:00",156496,4.096,62.56,5.575,1.126,12.89,104.5704,10.97,11.92,54.92,0,110.1,13.49,11.76,24.6
"2010-05-30 04:18:30",156497,4.167,68.82,6.727,1.489,13.82,104.5452,10.91,12.05,55.83,0,110.1,13.48,11.70,30.8
"2010-05-30 04:19:00",156498,4.224,49.7,14.24,1.373,12.49,104.5356,10.88,11.78,56.28,0,110.1,13.48,11.67,11.7
"2010-05-30 04:19:30",156499,3.183,49.78,3.911,0.215,10.88,104.5385,10.89,11.74,56.09,0,110.1,13.52,11.68,11.8
"2010-05-30 04:20:00",156500,3.281,43.16,3.871,0.768,11.32,104.5295,10.87,11.74,56.69,0,110.1,13.48,11.66,5.2
"2010-05-30 04:20:30",156501,3.091,63.28,8.19,1.368,12.82,104.5163,10.83,11.77,57.05,0,110.1,13.48,11.62,25.3
"2010-05-30 04:21:00",156502,5.531,70.6,12.05,1.238,14.6,104.5137,10.83,11.92,54.2,0,110.1,13.49,11.62,32.6
"2010-05-30 04:21:30",156503,3.17,79.66,11.18,0.558,11.43,104.5378,10.89,11.79,53.08,0,110.1,13.52,11.68,41.7
"2010-05-30 04:22:00",156504,2.135,72.86,12.38,0.507,11.02,104.5397,10.89,11.72,53.69,0,110.1,13.49,11.68,34.9
"2010-05-30 04:22:30",156505,3.144,55.08,15.53,1.587,12.82,104.5379,10.89,11.9,54.42,0,110.1,13.49,11.68,17.1
"2010-05-30 04:23:00",156506,3.282,67.29,10.96,1.416,13.12,104.5391,10.89,11.83,55.07,0,110.1,13.49,11.68,29.3
"2010-05-30 04:23:30",156507,3.956,68.62,6.592,1.377,13.12,104.5406,10.9,11.92,55.08,0,110.1,13.49,11.69,30.6
"2010-05-30 04:24:00",156508,3.236,77.18,7.5,0.414,11.17,104.5409,10.9,11.75,53.57,0,110.1,13.53,11.69,39.2
"2010-05-30 04:24:30",156509,4.266,73.27,7.906,0.874,12.18,104.5485,10.92,11.76,52.4,0,110.1,13.5,11.71,35.3
"2010-05-30 04:25:00",156510,3.718,74.02,4.942,0.77,11.85,104.5742,10.98,11.88,52.52,0,110.1,13.5,11.77,36.0
"2010-05-30 04:25:30",156511,5.609,82.3,10.75,1.319,15.01,104.573,10.98,11.96,53.58,0,110.1,13.5,11.77,44.3
"2010-05-30 04:26:00",156512,3.319,74,8.46,1.095,13.22,104.5748,10.98,11.95,54.43,0,110.1,13.5,11.77,36.0
"2010-05-30 04:26:30",156513,3.43,86.6,10.36,1.365,13.27,104.568,10.97,11.94,54.75,0,110.1,13.5,11.76,48.6
"2010-05-30 04:27:00",156514,2.957,84.3,8.09,1.324,12.85,104.5457,10.91,11.94,55.51,0,110.1,13.5,11.70,46.3
"2010-05-30 04:27:30",156515,3.312,68.78,10.72,0.943,13.39,104.5412,10.9,11.96,55.89,0,110.1,13.5,11.69,30.8
"2010-05-30 04:28:00",156516,2.033,67.28,16.78,0.776,11.16,104.5421,10.9,11.85,55.19,0,110.1,13.5,11.69,29.3
"2010-05-30 04:28:30",156517,3.227,76.6,9.17,0.381,10.92,104.5424,10.9,11.76,53.75,0,110.1,13.53,11.69,38.6
"2010-05-30 04:29:00",156518,2.558,77.22,10.53,0.562,10.97,104.5418,10.9,11.74,54.1,0,110.1,13.54,11.69,39.2
"2010-05-30 04:29:30",156519,3.747,91.4,11.7,1.171,13.56,104.5418,10.9,11.94,54.04,0,110.1,13.5,11.69,53.4
"2010-05-30 04:30:00",156520,3.087,97,5.734,0.725,11.47,104.5412,10.9,11.82,53.95,0,110.1,13.5,11.69,59.0
"2010-05-30 04:30:30",156521,3.325,95.1,11.24,0.89,12.59,104.5418,10.9,11.92,53.83,0,110.1,13.5,11.69,57.1
"2010-05-30 04:31:00",156522,3.859,111.3,8.02,1.25,13.47,104.5421,10.9,11.89,54.92,0,110.1,13.5,11.69,73.3
"2010-05-30 04:31:30",156523,2.924,103.3,6.668,1.193,13.39,104.5424,10.9,11.93,55.25,0,110.1,13.5,11.69,65.3
"2010-05-30 04:32:00",156524,3.138,91.2,9.65,1.155,13.2,104.5424,10.9,11.85,55.26,0,110.1,13.5,11.69,53.2
"2010-05-30 04:32:30",156525,4.512,90.1,9.63,1.837,13.08,104.5418,10.9,11.94,54.29,0,110.1,13.5,11.69,52.1
"2010-05-30 04:33:00",156526,4.515,88.1,6.291,0.261,11.03,104.5421,10.9,11.75,53.66,0,110.1,13.54,11.69,50.1
"2010-05-30 04:33:30",156527,4.45,86.8,3.354,0.269,11.11,104.5424,10.9,11.81,53.51,0,110.1,13.54,11.69,48.8
"2010-05-30 04:34:00",156528,5.609,90.4,6.385,1.138,13.59,104.5424,10.9,11.88,53.83,0,110.1,13.5,11.69,52.4
"2010-05-30 04:34:30",156529,4.698,86.4,4.882,0.58,11.96,104.5421,10.9,11.89,53.78,0,110.1,13.54,11.69,48.4
"2010-05-30 04:35:00",156530,5.919,94.3,7.608,1.465,13.09,104.559,10.94,11.81,53.29,0,110.1,13.5,11.73,56.3
"2010-05-30 04:35:30",156531,6.38,97.9,7.931,1.325,14.97,104.5763,10.99,12.06,53.77,0,110.1,13.5,11.78,59.9
"2010-05-30 04:36:00",156532,6.405,106.1,5.223,1.132,15.31,104.5757,10.99,12,54.28,0,110.1,13.5,11.78,68.1
"2010-05-30 04:36:30",156533,5.053,95.3,4.5,0.759,11.9,104.5743,10.98,11.9,53.81,0,110.1,13.5,11.77,57.3
"2010-05-30 04:37:00",156534,5.288,91.4,4.436,0.461,11.35,104.5686,10.97,11.82,53.49,0,110.1,13.53,11.76,53.4
"2010-05-30 04:37:30",156535,5.327,86.5,4.421,0.517,11.9,104.5754,10.99,11.93,52.69,0,110.1,13.53,11.78,48.5
"2010-05-30 04:38:00",156536,6.482,89.7,6.248,1.083,13.72,104.5933,11.03,11.88,50.85,0,110.1,13.5,11.82,51.7
"2010-05-30 04:38:30",156537,5.934,85.7,1.985,0.177,11.3,104.6193,11.1,11.92,50.98,0,110.1,13.54,11.89,47.7
"2010-05-30 04:39:00",156538,6.237,98.6,6.974,1.359,12.26,104.635,11.14,11.92,51.91,0,110.1,13.5,11.93,60.6
"2010-05-30 04:39:30",156539,7.251,111.2,6.769,1.129,15.21,104.6309,11.13,12.24,53.35,0,110.1,13.5,11.92,73.2
"2010-05-30 04:40:00",156540,6.334,111,6.652,1.286,14.48,104.6052,11.06,12.17,54.26,0,110.1,13.5,11.85,73.0
"2010-05-30 04:40:30",156541,6.315,106.1,6.982,1.245,13.25,104.601,11.05,11.99,53.53,0,110.1,13.5,11.84,68.1
"2010-05-30 04:41:00",156542,6.456,106.6,8.09,1.265,12.54,104.5996,11.05,11.92,53.29,0,110.1,13.5,11.84,68.6
"2010-05-30 04:41:30",156543,5.829,104.2,7.799,1.086,12.45,104.5864,11.01,12.06,53.77,0,110.1,13.5,11.80,66.2
"2010-05-30 04:42:00",156544,5.502,106.6,8.4,1.184,12.12,104.5695,10.97,11.87,54.38,0,110.1,13.5,11.76,68.6
"2010-05-30 04:42:30",156545,4.889,108.4,5.951,1.373,11.96,104.5665,10.96,11.87,54.25,0,110.1,13.5,11.75,70.4
"2010-05-30 04:43:00",156546,5.917,106.4,7.106,0.831,12.63,104.5662,10.96,11.97,53.7,0,110.1,13.5,11.75,68.4
"2010-05-30 04:43:30",156547,7.389,115.2,5.456,1.237,15.38,104.5674,10.97,12.07,54.21,0,110.1,13.5,11.76,77.2
"2010-05-30 04:44:00",156548,6.719,109.9,6.541,1.504,14.5,104.566,10.96,12.08,53.69,0,110.1,13.5,11.75,71.9
"2010-05-30 04:44:30",156549,4.936,107.5,3.607,0.248,11.26,104.551,10.92,11.92,53.9,0,110.1,13.53,11.71,69.5
"2010-05-30 04:45:00",156550,6.463,109.1,7.366,1.275,13.3,104.5355,10.88,11.89,53.17,0,110.1,13.5,11.67,71.1
"2010-05-30 04:45:30",156551,5.907,113.9,7.875,1.16,13.16,104.5326,10.88,11.97,53.58,0,110.1,13.5,11.67,75.9
"2010-05-30 04:46:00",156552,4.993,108.9,2.295,0.181,11.09,104.5344,10.88,11.78,53.7,0,110.1,13.54,11.67,70.9
"2010-05-30 04:46:30",156553,4.92,110.2,4.592,0.228,11.24,104.5344,10.88,11.83,54.16,0,110.1,13.54,11.67,72.2
"2010-05-30 04:47:00",156554,6.657,125.7,6.745,1.131,15.06,104.5353,10.88,11.99,54.25,0,110.1,13.5,11.67,87.7
"2010-05-30 04:47:30",156555,6.806,123.6,6.934,1.144,15.38,104.5332,10.88,12.03,54.33,0,110.1,13.5,11.67,85.6
"2010-05-30 04:48:00",156556,5.932,120.2,10.18,1.254,13.31,104.5365,10.89,11.91,54.43,0,110.1,13.5,11.68,82.2
"2010-05-30 04:48:30",156557,5.227,117.9,4.459,0.948,11.52,104.535,10.88,11.75,54.55,0,110.1,13.5,11.67,79.9